| time (UTC) | temp C | wind direction | speed KPH | gust KPH | rain 1hr cm | rain 24hr cm | rain mn cm | humidity % | barometer mb |
| 20260831083108 | 8 | 138 | 0.0 | 0.0 | 0.00 | 0.33 | 0.00 | 83 | 1007.6 |
| 20260831081503 | 9 | 138 | 0.0 | 0.0 | 0.00 | 0.33 | 0.00 | 82 | 1007.6 |
| 20260831080057 | 10 | 138 | 0.0 | 0.0 | 0.00 | 0.33 | 0.00 | 79 | 1007.7 |
| 20260831074503 | 10 | 138 | 0.0 | 3.2 | 0.00 | 0.33 | 0.00 | 81 | 1007.7 |
| 20260831073029 | 9 | 138 | 0.0 | 11.3 | 0.00 | 0.33 | 0.00 | 84 | 1008.0 |
| 20260831071543 | 8 | 119 | 1.6 | 4.8 | 0.00 | 0.33 | 0.00 | 86 | 1008.1 |
| 20260831070020 | 8 | 119 | 0.0 | 0.0 | 0.00 | 0.33 | 0.00 | 86 | 1008.3 |
| 20260831064535 | 9 | 119 | 0.0 | 0.0 | 0.00 | 0.33 | 0.00 | 85 | 1007.8 |
| 20260831063046 | 10 | 119 | 0.0 | 4.8 | 0.00 | 0.33 | 0.00 | 85 | 1008.0 |
| 20260831061547 | 10 | 143 | 3.2 | 4.8 | 0.00 | 0.33 | 0.00 | 86 | 1008.1 |
| 20260831060052 | 10 | 144 | 1.6 | 4.8 | 0.00 | 0.33 | 0.00 | 86 | 1008.5 |
| 20260831054552 | 10 | 144 | 0.0 | 6.4 | 0.00 | 0.33 | 0.33 | 85 | 1008.8 |
| 20260831053122 | 10 | 128 | 1.6 | 11.3 | 0.00 | 0.33 | 0.33 | 87 | 1008.9 |
| 20260831051549 | 10 | 131 | 0.0 | 9.7 | 0.03 | 0.33 | 0.33 | 88 | 1008.8 |
| 20260831050104 | 9 | 156 | 1.6 | 8.0 | 0.05 | 0.33 | 0.33 | 90 | 1008.9 |
| 20260831044504 | 9 | 107 | 0.0 | 4.8 | 0.15 | 0.33 | 0.33 | 89 | 1008.9 |
| 20260831043152 | 9 | 103 | 1.6 | 16.1 | 0.23 | 0.33 | 0.33 | 89 | 1008.5 |
| 20260831041617 | 9 | 125 | 3.2 | 12.9 | 0.28 | 0.30 | 0.30 | 90 | 1008.6 |
| 20260831040050 | 10 | 119 | 1.6 | 11.3 | 0.28 | 0.28 | 0.28 | 89 | 1008.7 |
| 20260831034549 | 10 | 207 | 0.0 | 0.0 | 0.18 | 0.18 | 0.18 | 87 | 1009.6 |
| 20260831033108 | 11 | 207 | 0.0 | 4.8 | 0.10 | 0.10 | 0.10 | 82 | 1009.7 |
| 20260831031602 | 12 | 284 | 0.0 | 25.7 | 0.03 | 0.03 | 0.03 | 75 | 1009.4 |
| 20260831030127 | 12 | 60 | 0.0 | 0.0 | 0.00 | 0.00 | 0.00 | 66 | 1008.0 |
| 20260831024600 | 12 | 45 | 0.0 | 12.9 | 0.00 | 0.00 | 0.00 | 66 | 1007.2 |
| 20260831023059 | 12 | 37 | 0.0 | 6.4 | 0.00 | 0.00 | 0.00 | 68 | 1007.0 |
| 20260831021552 | 12 | 29 | 0.0 | 0.0 | 0.00 | 0.00 | 0.00 | 70 | 1007.1 |
| 20260831020100 | 13 | 321 | 0.0 | 0.0 | 0.00 | 0.00 | 0.00 | 70 | 1006.9 |
| 20260831014507 | 13 | 327 | 4.8 | 14.5 | 0.00 | 0.00 | 0.00 | 67 | 1006.8 |
| 20260831013037 | 14 | 101 | 0.0 | 0.0 | 0.00 | 0.00 | 0.00 | 67 | 1006.5 |
| 20260831011506 | 14 | 101 | 0.0 | 0.0 | 0.00 | 0.00 | 0.00 | 63 | 1005.9 |
| 20260831010131 | 14 | 101 | 0.0 | 0.0 | 0.00 | 0.00 | 0.00 | 64 | 1005.7 |
| 20260831004503 | 15 | 101 | 0.0 | 0.0 | 0.00 | 0.00 | 0.00 | 61 | 1005.7 |
| 20260831003111 | 15 | 340 | 0.0 | 0.0 | 0.00 | 0.00 | 0.00 | 58 | 1005.9 |
| 20260831001605 | 15 | 347 | 0.0 | 0.0 | 0.00 | 0.00 | 0.00 | 59 | 1006.0 |
| 20260831000002 | 15 | 317 | 0.0 | 0.0 | 0.00 | 0.00 | 0.00 | 60 | 1005.9 |
| 20260830234631 | 14 | 126 | 0.0 | 0.0 | 0.00 | 0.00 | 0.00 | 64 | 1005.9 |
| 20260830233152 | 13 | 126 | 0.0 | 0.0 | 0.00 | 0.00 | 0.00 | 65 | 1005.7 |
| 20260830231502 | 13 | 121 | 0.0 | 0.0 | 0.00 | 0.00 | 0.00 | 68 | 1005.9 |
| 20260830230122 | 15 | 321 | 0.0 | 0.0 | 0.00 | 0.00 | 0.00 | 65 | 1006.9 |
| 20260830224551 | 15 | 308 | 0.0 | 0.0 | 0.00 | 0.08 | 0.00 | 57 | 1006.6 |
| 20260830223057 | 16 | 296 | 0.0 | 8.0 | 0.00 | 0.08 | 0.00 | 50 | 1006.0 |
| 20260830221557 | 17 | 150 | 0.0 | 0.0 | 0.00 | 0.08 | 0.00 | 48 | 1005.1 |
| 20260830220124 | 16 | 138 | 0.0 | 0.0 | 0.00 | 0.08 | 0.00 | 50 | 1004.8 |
| 20260830214553 | 15 | 137 | 0.0 | 16.1 | 0.00 | 0.08 | 0.00 | 53 | 1005.0 |
| 20260830213107 | 15 | 182 | 0.0 | 14.5 | 0.00 | 0.08 | 0.00 | 51 | 1005.2 |
| 20260830211554 | 15 | 194 | 3.2 | 17.7 | 0.00 | 0.08 | 0.00 | 54 | 1005.0 |
| 20260830204540 | 17 | 167 | 0.0 | 0.0 | 0.00 | 0.08 | 0.00 | 50 | 1004.5 |
| 20260830203046 | 18 | 184 | 0.0 | 0.0 | 0.00 | 0.08 | 0.00 | 48 | 1004.3 |
| 20260830201549 | 18 | 165 | 0.0 | 11.3 | 0.00 | 0.08 | 0.00 | 47 | 1004.2 |
| 20260830200050 | 18 | 142 | 0.0 | 12.9 | 0.00 | 0.08 | 0.00 | 48 | 1004.2 |
| 20260830194549 | 18 | 182 | 0.0 | 0.0 | 0.00 | 0.08 | 0.00 | 49 | 1004.3 |
| 20260830193052 | 18 | 185 | 0.0 | 0.0 | 0.00 | 0.08 | 0.00 | 49 | 1004.3 |
| 20260830191546 | 18 | 115 | 0.0 | 0.0 | 0.00 | 0.08 | 0.00 | 51 | 1004.6 |
| 20260830190048 | 18 | 261 | 0.0 | 0.0 | 0.00 | 0.08 | 0.00 | 48 | 1004.7 |
| 20260830184541 | 18 | 147 | 0.0 | 6.4 | 0.00 | 0.08 | 0.00 | 48 | 1004.6 |
| 20260830183147 | 18 | 150 | 0.0 | 0.0 | 0.00 | 0.08 | 0.00 | 47 | 1004.6 |
| 20260830181558 | 18 | 176 | 0.0 | 0.0 | 0.00 | 0.08 | 0.00 | 49 | 1004.7 |
| 20260830180124 | 18 | 155 | 0.0 | 0.0 | 0.00 | 0.08 | 0.00 | 51 | 1005.0 |
| 20260830174618 | 17 | 173 | 0.0 | 1.6 | 0.00 | 0.08 | 0.00 | 49 | 1005.2 |
| 20260830173152 | 17 | 167 | 0.0 | 0.0 | 0.00 | 0.08 | 0.00 | 51 | 1005.2 |
| 20260830171524 | 16 | 229 | 0.0 | 0.0 | 0.00 | 0.08 | 0.00 | 58 | 1005.4 |
| 20260830170020 | 16 | 288 | 0.0 | 0.0 | 0.00 | 0.08 | 0.00 | 54 | 1005.4 |
| 20260830164510 | 16 | 287 | 0.0 | 0.0 | 0.00 | 0.08 | 0.00 | 57 | 1005.4 |
| 20260830163032 | 16 | 257 | 0.0 | 0.0 | 0.00 | 0.08 | 0.00 | 55 | 1005.6 |
| 20260830161524 | 15 | 173 | 0.0 | 0.0 | 0.00 | 0.08 | 0.00 | 59 | 1005.6 |
| 20260830160153 | 15 | 173 | 0.0 | 0.0 | 0.00 | 0.08 | 0.00 | 58 | 1005.5 |
| 20260830154514 | 14 | 173 | 0.0 | 0.0 | 0.00 | 0.08 | 0.00 | 60 | 1005.4 |
| 20260830153040 | 14 | 173 | 0.0 | 0.0 | 0.00 | 0.08 | 0.00 | 64 | 1005.1 |
| 20260830151539 | 14 | 173 | 0.0 | 0.0 | 0.00 | 0.08 | 0.00 | 63 | 1004.9 |
| 20260830150114 | 13 | 173 | 0.0 | 0.0 | 0.00 | 0.08 | 0.00 | 63 | 1005.0 |
| 20260830144557 | 13 | 149 | 0.0 | 0.0 | 0.00 | 0.08 | 0.00 | 66 | 1005.1 |
| 20260830143112 | 13 | 150 | 0.0 | 1.6 | 0.00 | 0.08 | 0.00 | 68 | 1005.0 |
| 20260830141507 | 12 | 150 | 0.0 | 0.0 | 0.00 | 0.08 | 0.00 | 71 | 1005.4 |
| 20260830140029 | 11 | 174 | 0.0 | 0.0 | 0.00 | 0.08 | 0.00 | 72 | 1005.3 |
| 20260830134542 | 11 | 174 | 0.0 | 0.0 | 0.00 | 0.08 | 0.00 | 73 | 1005.4 |
| 20260830133048 | 11 | 174 | 0.0 | 0.0 | 0.00 | 0.08 | 0.00 | 71 | 1004.9 |
| 20260830131553 | 11 | 174 | 0.0 | 0.0 | 0.00 | 0.08 | 0.00 | 70 | 1004.9 |
| 20260830130104 | 11 | 174 | 0.0 | 0.0 | 0.00 | 0.08 | 0.00 | 71 | 1004.8 |
| 20260830124554 | 11 | 174 | 0.0 | 0.0 | 0.00 | 0.08 | 0.00 | 71 | 1004.6 |
| 20260830123054 | 11 | 174 | 0.0 | 0.0 | 0.00 | 0.08 | 0.00 | 70 | 1004.4 |
| 20260830121553 | 11 | 174 | 0.0 | 0.0 | 0.00 | 0.08 | 0.00 | 73 | 1004.0 |
| 20260830120029 | 11 | 174 | 0.0 | 0.0 | 0.00 | 0.08 | 0.00 | 72 | 1003.8 |
| 20260830114605 | 12 | 174 | 0.0 | 0.0 | 0.00 | 0.08 | 0.00 | 67 | 1003.8 |
| 20260830113057 | 12 | 174 | 0.0 | 0.0 | 0.00 | 0.08 | 0.00 | 66 | 1003.9 |
| 20260830111553 | 12 | 174 | 0.0 | 0.0 | 0.00 | 0.08 | 0.00 | 66 | 1003.9 |
| 20260830110040 | 12 | 174 | 0.0 | 0.0 | 0.00 | 0.08 | 0.00 | 66 | 1003.7 |
| 20260830104511 | 12 | 174 | 0.0 | 0.0 | 0.00 | 0.08 | 0.00 | 66 | 1003.4 |
| 20260830103036 | 12 | 174 | 0.0 | 0.0 | 0.00 | 0.08 | 0.00 | 66 | 1003.5 |
| 20260830101547 | 13 | 174 | 0.0 | 0.0 | 0.00 | 0.08 | 0.00 | 65 | 1003.5 |
| 20260830100037 | 13 | 174 | 0.0 | 0.0 | 0.00 | 0.08 | 0.00 | 64 | 1003.4 |
| 20260830094541 | 13 | 174 | 0.0 | 0.0 | 0.00 | 0.08 | 0.00 | 61 | 1003.5 |
| 20260830093055 | 13 | 174 | 0.0 | 0.0 | 0.00 | 0.08 | 0.00 | 61 | 1003.6 |
| 20260830091555 | 14 | 125 | 0.0 | 0.0 | 0.00 | 0.08 | 0.00 | 59 | 1003.8 |
| 20260830090129 | 15 | 156 | 0.0 | 0.0 | 0.00 | 0.08 | 0.00 | 58 | 1003.7 |
| 20260830084629 | 15 | 158 | 0.0 | 12.9 | 0.00 | 0.08 | 0.00 | 58 | 1003.7 |